Tracking 33744 objects as of 12-Apr-2026
HD Live streaming from Space Station
objects crossing your sky now

STARLINK-31903

Track STARLINK-31903 now!
10-day predictions
STARLINK-31903 is classified as:


NORAD ID: 59845
Int'l Code: 2024-097L
Perigee: 489.4 km
Apogee: 491.0 km
Inclination: 43.0 °
Period: 94.3 minutes
Semi major axis: 6861 km
RCS: Unknown
Launch date: May 23, 2024
Source: United States (US)
Launch site: AIR FORCE EASTERN TEST RANGE (AFETR)
Your satellite tracking list
Your tracking list is empty




NASA's NSSDC Master Catalog

Two Line Element Set (TLE):
1 59845U 24097L   26101.94523128 -.00000293  00000-0 -11387-5 0  9998
2 59845  43.0007  79.5456 0001234 258.1753 101.8961 15.27575001107089
Source of the keplerian elements: AFSPC